Regional Weather Roundup
Issued by NWS

Home | Current Version | Previous Version | Graphics & Text | Print | Product List | Glossary Off
Versions: 1 2 3 4 5 6 7 8 9 10 11 12 13 14 15 16 17 18 19 20 21 22 23 24 25 26 27 28 29 30 31 32 33 34 35 36 37 38 39 40 41 42 43 44 45 46 47 48 49 50

000
ASUS43 KDMX 210306
RWRIA

WEATHER ROUNDUP FOR IOWA
NATIONAL WEATHER SERVICE DES MOINES IA
900 PM CST TUE FEB 20 2018

NOTE: "FAIR" INDICATES FEW OR NO CLOUDS BELOW 12,000 FEET WITH NO
SIGNIFICANT WEATHER AND/OR OBSTRUCTIONS TO VISIBILITY.

* - THESE STATIONS ARE NOT NWS STATIONS...THUS NOT UNDER NWS
QUALITY CONTROL.  THEY ALSO DO NOT REPORT WEATHER SUCH
AS PRECIPITATION OR FOG.

IAZ001>003-012>014-020>022-031>034-043>046-210400-
   NORTHWEST IOWA

CITY           SKY/WX    TMP DP  RH WIND       PRES   REMARKS
CARROLL *      CLOUDY    14  10  85 NW17G24   30.32R WCI  -3
CHEROKEE *     CLOUDY    10   6  82 NW8       30.35R WCI  -2
DENISON *      CLOUDY    12   7  79 NW12G22   30.37R WCI  -2
LE MARS *      CLEAR      9   3  78 NW9       30.38R WCI  -5
ORANGE CITY *  CLEAR      9   3  78 NW9       30.34R WCI  -5
SHELDON *      CLEAR      7   1  78 NW12G17   30.32R WCI  -9
SIOUX CITY     CLEAR     10   3  73 NW14      30.39R WCI  -6
SPENCER        MIX PCPN   9   4  80 NW10      30.33R WCI  -5
STORM LAKE *   CLOUDY    10   5  79 NW15      30.32R WCI  -6
$$

IAZ055>058-069>071-079>083-090>094-210400-
   SOUTHWEST IOWA

CITY           SKY/WX    TMP DP  RH WIND       PRES   REMARKS
ATLANTIC *     PTCLDY    14  10  85 N16       30.34R WCI  -2
AUDUBON *      PTCLDY    14   9  79 NW10G16   30.33R WCI   1
CLARINDA *     CLOUDY    18  14  86 N15G21    30.36R WCI   3
COUNCIL BLFS * CLOUDY    14  12  92 NW13G22   30.35R WCI   0
CRESTON *      CLOUDY    16  12  86 N18G24    30.31R WCI  -1
HARLAN  *      CLOUDY    14   9  79 N16G25    30.38R WCI  -2
LAMONI         CLOUDY    19  13  77 N12       30.28R WCI   7
RED OAK *      MOCLDY    16  10  79 N13G21    30.36R WCI   2
SHENANDOAH *   PTCLDY    18  10  73 N16       30.37R WCI   3
$$

IAZ047>049-059>061-072>074-084-210400-
   CENTRAL IOWA

CITY           SKY/WX    TMP DP  RH WIND       PRES   REMARKS
AMES           CLOUDY    18  11  74 N15       30.32R WCI   4
ANKENY *       CLOUDY    18  12  79 NW13G20   30.32R WCI   4
BOONE *        CLOUDY    16  10  79 MISG      30.29R
CHARITON *     MOCLDY    19  16  86 NW20      30.28R WCI   4
DES MOINES     CLOUDY    18  12  77 NW16      30.31R WCI   3
GRINNELL*      CLOUDY    20  17  86 NW15      30.27R WCI   7
KNOXVILLE *    CLOUDY    19  14  79 NW17      30.27R WCI   4
MARSHALLTOWN   CLOUDY    18  13  80 NW21      30.28R WCI   1
NEWTON *       CLOUDY    19  16  86 NW16G22   30.29R WCI   5
PELLA *        CLOUDY    21  15  79 NW13G18   30.29R WCI   8
PERRY *        FAIR      17  12  83 NW15      30.33R WCI   2
$$

IAZ004>006-015-016-023>025-035-036-210400-
   NORTH CENTRAL IOWA

CITY           SKY/WX    TMP DP  RH WIND       PRES   REMARKS
ALGONA *       CLOUDY    12 N/A N/A NW14      30.31R WCI  -3
CLARION *      CLOUDY    14  14 100 NW18      30.30R WCI  -3
ESTHERVILLE    CLOUDY     9   3  77 NW14      30.30R WCI  -7
FORT DODGE *   CLOUDY    13   8  81 NW5       30.32R WCI   5
MASON CITY     PTCLDY    12   6  77 NW15      30.29R WCI  -4
FOREST CITY *  FAIR      14   9  79 NW10      30.29R WCI   1
WEBSTER CITY * CLOUDY    14   9  79 NW16      30.29R WCI  -2
IOWA FALLS *   FAIR      16  12  83 NW14      30.30R WCI   2
$$

IAZ007>011-017>019-026>030-037>042-050>054-066-210400-
   NORTHEAST IOWA

CITY           SKY/WX    TMP DP  RH WIND       PRES   REMARKS
CEDAR RAPIDS   FAIR      22  15  75 NW20G26   30.22R WCI   7
CHARLES CITY * CLOUDY    16  14  93 NW15      30.26R WCI   1
CLINTON *        N/A     27  23  85 MISG      30.19
DECORAH *      MOCLDY    16  12  86 NW10G18   30.21R WCI   3
DUBUQUE        MOCLDY    23  17  78 NW16      30.18R WCI  10
MONTICELLO *   MOCLDY    23  18  80 NW18      30.21R WCI   9
OELWEIN *      CLOUDY    18  18 100 NW18      30.24R WCI   2
WATERLOO       MOCLDY    17  13  84 NW15      30.27R WCI   2
$$

IAZ064-065-067-068-078-210400-
   EAST CENTRAL IOWA

CITY           SKY/WX    TMP DP  RH WIND       PRES   REMARKS
DAVENPORT      MOCLDY    27  20  75 NW16G28   30.20R WCI  15
IOWA CITY      FAIR      24  15  68 NW15      30.25S WCI  11
MT. PLEASANT * CLOUDY    27  19  74 NW12G20   30.24R WCI  16
MUSCATINE *    MOCLDY    27  19  74 NW20      30.23S WCI  13
QUAD CITIES    MOCLDY    28  22  78 NW22G29   30.19R WCI  14
$$

IAZ062-063-075>077-085>089-095>099-210400-
   SOUTHEAST IOWA

CITY           SKY/WX    TMP DP  RH WIND       PRES   REMARKS
BURLINGTON     MOCLDY    27  21  78 NW14      30.21R WCI  16
FAIRFIELD *    CLOUDY    23  18  80 NW20      30.24R WCI   8
FORT MADISON * MOCLDY    27  21  80 NW15      30.23R WCI  15
KEOKUK *       CLOUDY    27  23  86 NW16G23   30.22R WCI  14
OSKALOOSA *    MOCLDY    22  18  85 NW10      30.27R WCI  11
OTTUMWA        MOCLDY    23  16  74 N23       30.26R WCI   7
WASHINGTON *   MOCLDY    25  21  86 NW18      30.25R WCI  11
$$

ABBREVIATIONS USED IN REMARKS
   TC - TEMPERATURES IN CELSIUS
  WCI - WIND CHILL INDEX
   HX - HEAT INDEX
  VSB - VISIBILITY
$$




USA.gov is the U.S. government's official web portal to all federal, state and local government web resources and services.